Location: Il Ritiro
(43.4167°N, 13.1333°E)
Time: 17:01:01
(UTC+00:00)

Cosmos 1371 Rocket - Pass Details

Date: 05 July 2020
Orbit: 753 x 790 km, 74.0° (Epoch: 10 August)

Event Time Altitude Azimuth Distance (km) Brightness Sun altitude
Rises 22:36:00 0° 335° (NNW) 3,245 8.5 -23.4°
Reaches altitude 10° 22:38:25 10° 331° (NNW) 2,320 7.4 -23.5°
Maximum altitude 22:43:32 54° 255° (WSW) 938 4.3 -23.6°
Enters shadow 22:44:16 50° 225° (SW) 987 4.3 -23.6°
